�������l�o���
Date,Time,MP-1(��Sv/h),MP-2(��Sv/h),MP-3(��Sv/h),MP-4(��Sv/h),MP-5(��Sv/h),MP-6(��Sv/h),MP-7(��Sv/h),MP-8(��Sv/h),����,����(m/s),���J
2018/04/16,00:00,0.855,1.430,0.899,1.678,1.139,0.480,0.855,0.817,�k��,6.6,��
2018/04/16,00:10,0.854,1.429,0.896,1.679,1.142,0.481,0.854,0.816,�k��,5.9,��
2018/04/16,00:20,0.855,1.431,0.897,1.676,1.138,0.481,0.854,0.818,�k��,4.6,��
2018/04/16,00:30,0.857,1.428,0.896,1.678,1.141,0.479,0.853,0.816,�k��,4.0,��
2018/04/16,00:40,0.856,1.429,0.897,1.675,1.139,0.481,0.853,0.817,�k��,5.9,��
2018/04/16,00:50,0.857,1.430,0.898,1.676,1.137,0.483,0.854,0.816,�k��,5.6,��
2018/04/16,01:00,0.854,1.430,0.896,1.676,1.139,0.480,0.853,0.815,�k��,4.9,��
2018/04/16,01:10,0.855,1.432,0.896,1.674,1.141,0.481,0.852,0.816,�k��,4.0,��
2018/04/16,01:20,0.853,1.425,0.897,1.676,1.138,0.480,0.853,0.817,�k��,3.6,��
2018/04/16,01:30,0.854,1.430,0.896,1.675,1.141,0.483,0.851,0.815,�k��,2.2,��
2018/04/16,01:40,0.855,1.428,0.896,1.678,1.139,0.481,0.852,0.816,�k��,1.7,��
2018/04/16,01:50,0.856,1.430,0.895,1.674,1.141,0.482,0.852,0.817,���k��,2.0,��
2018/04/16,02:00,0.857,1.429,0.895,1.677,1.139,0.481,0.854,0.815,�k��,2.0,��
2018/04/16,02:10,0.855,1.429,0.895,1.674,1.141,0.480,0.853,0.814,-,CALM,��
2018/04/16,02:20,0.855,1.431,0.897,1.673,1.139,0.482,0.853,0.816,�k��,0.6,��
2018/04/16,02:30,0.855,1.430,0.897,1.674,1.138,0.480,0.854,0.817,�k��,1.7,��
2018/04/16,02:40,0.854,1.428,0.896,1.674,1.139,0.481,0.851,0.815,�k��,4.1,��
2018/04/16,02:50,0.857,1.427,0.896,1.677,1.138,0.480,0.853,0.816,�k��,4.0,��
2018/04/16,03:00,0.855,1.428,0.895,1.675,1.140,0.483,0.852,0.813,�k,2.0,��
2018/04/16,03:10,0.856,1.431,0.895,1.676,1.139,0.482,0.853,0.815,�k�k��,2.8,��
2018/04/16,03:20,0.854,1.427,0.895,1.675,1.141,0.481,0.853,0.816,�k�k��,2.5,��
2018/04/16,03:30,0.853,1.431,0.894,1.674,1.139,0.481,0.852,0.816,�k,2.2,��
2018/04/16,03:40,0.857,1.430,0.894,1.675,1.138,0.482,0.852,0.816,�k,2.3,��
2018/04/16,03:50,0.855,1.431,0.894,1.677,1.139,0.481,0.854,0.816,�k�k��,1.7,��
2018/04/16,04:00,0.855,1.428,0.894,1.672,1.139,0.482,0.853,0.817,�k,2.6,��
2018/04/16,04:10,0.856,1.428,0.894,1.674,1.139,0.482,0.854,0.814,�k�k��,1.2,��
2018/04/16,04:20,0.855,1.431,0.895,1.676,1.139,0.481,0.853,0.816,���k��,0.8,��
2018/04/16,04:30,0.854,1.428,0.894,1.675,1.139,0.481,0.853,0.816,���쓌,1.9,��
2018/04/16,04:40,0.854,1.429,0.895,1.677,1.138,0.481,0.853,0.815,���k��,1.2,��
2018/04/16,04:50,0.854,1.431,0.895,1.673,1.137,0.482,0.853,0.816,��,1.5,��
2018/04/16,05:00,0.855,1.428,0.894,1.674,1.138,0.481,0.854,0.815,�k��,0.8,��
2018/04/16,05:10,0.855,1.428,0.896,1.673,1.139,0.481,0.854,0.817,���k��,1.1,��
2018/04/16,05:20,0.855,1.431,0.894,1.676,1.137,0.483,0.855,0.815,�k��,1.4,��
2018/04/16,05:30,0.855,1.426,0.893,1.674,1.140,0.482,0.852,0.815,�k��,4.4,��
2018/04/16,05:40,0.856,1.428,0.894,1.673,1.140,0.481,0.853,0.815,�k��,1.5,��
2018/04/16,05:50,0.854,1.429,0.894,1.673,1.136,0.480,0.853,0.817,�k�k��,3.8,��
2018/04/16,06:00,0.854,1.429,0.896,1.677,1.140,0.480,0.854,0.815,�k�k��,3.6,��
2018/04/16,06:10,0.856,1.430,0.895,1.675,1.138,0.482,0.854,0.816,�k,3.8,��
2018/04/16,06:20,0.854,1.429,0.894,1.677,1.140,0.481,0.853,0.817,�k,3.8,��
2018/04/16,06:30,0.854,1.430,0.895,1.676,1.142,0.481,0.853,0.814,�k,4.0,��
2018/04/16,06:40,0.855,1.430,0.898,1.676,1.140,0.480,0.853,0.816,�k,3.8,��
2018/04/16,06:50,0.855,1.430,0.892,1.676,1.138,0.482,0.853,0.817,�k,4.0,��
2018/04/16,07:00,0.854,1.430,0.895,1.677,1.140,0.481,0.853,0.817,�k,3.9,��
2018/04/16,07:10,0.855,1.430,0.895,1.675,1.140,0.480,0.854,0.817,�k,2.9,��
2018/04/16,07:20,0.854,1.426,0.894,1.674,1.142,0.480,0.851,0.816,�k�k��,3.1,��
2018/04/16,07:30,0.856,1.430,0.894,1.674,1.142,0.480,0.852,0.816,�k,1.7,��
2018/04/16,07:40,0.855,1.432,0.894,1.675,1.140,0.482,0.853,0.816,�k��,2.3,��
2018/04/16,07:50,0.857,1.431,0.897,1.672,1.142,0.480,0.852,0.816,�k�k��,0.9,��
2018/04/16,08:00,0.857,1.429,0.895,1.676,1.140,0.480,0.852,0.817,�k��,0.9,��
2018/04/16,08:10,0.856,1.432,0.897,1.678,1.143,0.481,0.854,0.817,�k��,2.3,��
2018/04/16,08:20,0.855,1.430,0.895,1.676,1.140,0.482,0.852,0.816,�k��,3.1,��
2018/04/16,08:30,0.856,1.432,0.896,1.679,1.141,0.481,0.852,0.820,�k�k��,2.2,��
2018/04/16,08:40,0.857,1.431,0.893,1.678,1.143,0.480,0.851,0.817,�k��,1.2,��
2018/04/16,08:50,0.857,1.431,0.895,1.674,1.144,0.482,0.852,0.816,���k��,2.2,��
2018/04/16,09:00,0.857,1.430,0.895,1.677,1.143,0.480,0.851,0.814,���k��,2.3,��
2018/04/16,09:10,0.858,1.429,0.894,1.677,1.142,0.477,0.852,0.817,��,2.8,��
2018/04/16,09:20,0.859,1.432,0.897,1.679,1.144,0.480,0.852,0.816,��,3.2,��
2018/04/16,09:30,0.861,1.431,0.895,1.678,1.145,0.480,0.852,0.817,��,4.2,��
2018/04/16,09:40,0.860,1.433,0.895,1.679,1.148,0.480,0.850,0.817,��,4.0,��
2018/04/16,09:50,0.858,1.432,0.897,1.679,1.144,0.479,0.853,0.816,��,4.4,��
2018/04/16,10:00,0.858,1.430,0.898,1.676,1.143,0.479,0.852,0.817,��,4.3,��
2018/04/16,10:10,0.859,1.432,0.896,1.679,1.143,0.479,0.853,0.814,���쓌,4.6,��
2018/04/16,10:20,0.857,1.433,0.896,1.678,1.143,0.479,0.852,0.814,��,4.6,��
2018/04/16,10:30,0.857,1.429,0.898,1.678,1.144,0.480,0.853,0.814,��,4.6,��
2018/04/16,10:40,0.859,1.434,0.898,1.678,1.145,0.482,0.852,0.814,��,3.9,��
2018/04/16,10:50,0.859,1.433,0.895,1.678,1.144,0.480,0.852,0.814,���k��,3.7,��
2018/04/16,11:00,0.861,1.437,0.894,1.678,1.142,0.481,0.851,0.815,���k��,3.4,��
2018/04/16,11:10,0.860,1.433,0.894,1.681,1.146,0.482,0.853,0.815,��,4.6,��
2018/04/16,11:20,0.862,1.438,0.895,1.680,1.146,0.481,0.854,0.813,���k��,5.0,��
2018/04/16,11:30,0.860,1.439,0.897,1.682,1.147,0.480,0.853,0.814,��,5.8,��
2018/04/16,11:40,0.859,1.439,0.895,1.684,1.148,0.480,0.853,0.814,��,5.5,��
2018/04/16,11:50,0.860,1.439,0.896,1.683,1.147,0.482,0.853,0.815,��,6.7,��
2018/04/16,12:00,0.860,1.439,0.893,1.678,1.145,0.480,0.855,0.814,��,6.1,��
2018/04/16,12:10,0.860,1.439,0.894,1.677,1.145,0.480,0.852,0.815,���k��,6.7,��
2018/04/16,12:20,0.859,1.435,0.894,1.678,1.148,0.480,0.854,0.814,��,6.7,��
2018/04/16,12:30,0.860,1.437,0.894,1.679,1.147,0.481,0.853,0.814,��,5.8,��
2018/04/16,12:40,0.861,1.435,0.897,1.682,1.148,0.481,0.851,0.816,���k��,5.7,��
2018/04/16,12:50,0.863,1.437,0.899,1.681,1.152,0.481,0.851,0.815,��,4.8,��
2018/04/16,13:00,0.862,1.437,0.898,1.680,1.150,0.480,0.854,0.814,��,4.8,��
2018/04/16,13:10,0.864,1.439,0.903,1.681,1.149,0.480,0.853,0.815,���k��,4.1,��
2018/04/16,13:20,0.863,1.440,0.900,1.681,1.150,0.481,0.853,0.814,���k��,3.3,��
2018/04/16,13:30,0.864,1.436,0.899,1.682,1.148,0.483,0.852,0.813,��,4.1,��
2018/04/16,13:40,0.863,1.435,0.897,1.684,1.148,0.481,0.854,0.813,���k��,3.1,��
2018/04/16,13:50,0.863,1.439,0.901,1.682,1.150,0.482,0.854,0.814,��,2.8,��
2018/04/16,14:00,0.862,1.442,0.899,1.684,1.148,0.483,0.853,0.815,��,3.1,��
2018/04/16,14:10,0.861,1.437,0.900,1.683,1.147,0.481,0.853,0.814,���k��,2.3,��
2018/04/16,14:20,0.864,1.439,0.898,1.680,1.148,0.482,0.852,0.813,���k��,2.6,��
2018/04/16,14:30,0.864,1.439,0.901,1.685,1.149,0.484,0.855,0.815,���k��,3.2,��
2018/04/16,14:40,0.865,1.441,0.901,1.684,1.150,0.482,0.851,0.815,���k��,3.3,��
2018/04/16,14:50,0.863,1.442,0.903,1.683,1.150,0.482,0.853,0.816,�k��,2.9,��
2018/04/16,15:00,0.863,1.445,0.903,1.682,1.148,0.482,0.855,0.815,���k��,2.9,��
2018/04/16,15:10,0.864,1.442,0.901,1.686,1.149,0.484,0.853,0.814,��,2.2,��
2018/04/16,15:20,0.864,1.441,0.902,1.684,1.148,0.483,0.852,0.814,���k��,2.3,��
2018/04/16,15:30,0.864,1.443,0.902,1.686,1.150,0.485,0.853,0.814,�k��,2.3,��
2018/04/16,15:40,0.866,1.444,0.901,1.686,1.151,0.484,0.851,0.815,�k��,3.0,��
2018/04/16,15:50,0.865,1.445,0.902,1.684,1.149,0.483,0.851,0.813,�k��,4.1,��
2018/04/16,16:00,0.866,1.443,0.902,1.684,1.151,0.485,0.853,0.816,�k�k��,4.2,��
2018/04/16,16:10,0.864,1.445,0.901,1.686,1.149,0.483,0.850,0.813,���k��,4.6,��
2018/04/16,16:20,0.865,1.441,0.901,1.685,1.148,0.484,0.853,0.816,�k��,5.0,��
2018/04/16,16:30,0.865,1.442,0.901,1.684,1.150,0.483,0.852,0.815,���k��,4.4,��
2018/04/16,16:40,0.865,1.442,0.897,1.684,1.147,0.484,0.852,0.816,�k�k��,3.7,��
2018/04/16,16:50,0.864,1.444,0.900,1.684,1.150,0.483,0.852,0.816,�k��,3.7,��
2018/04/16,17:00,0.864,1.445,0.900,1.685,1.150,0.482,0.853,0.816,�k��,2.3,��
2018/04/16,17:10,0.866,1.443,0.902,1.685,1.150,0.483,0.854,0.818,���k��,2.6,��
2018/04/16,17:20,0.864,1.443,0.901,1.686,1.150,0.483,0.853,0.817,���k��,2.3,��
2018/04/16,17:30,0.864,1.444,0.899,1.686,1.153,0.483,0.852,0.819,���k��,2.2,��
2018/04/16,17:40,0.862,1.443,0.900,1.686,1.151,0.482,0.851,0.817,��,3.0,��
2018/04/16,17:50,0.863,1.446,0.902,1.682,1.152,0.484,0.852,0.818,��,2.0,��
2018/04/16,18:00,0.865,1.443,0.903,1.686,1.153,0.484,0.852,0.818,���k��,2.3,��
2018/04/16,18:10,0.865,1.443,0.902,1.686,1.154,0.484,0.853,0.817,���k��,1.7,��
2018/04/16,18:20,0.864,1.445,0.902,1.685,1.154,0.482,0.854,0.817,�k��,2.3,��
2018/04/16,18:30,0.864,1.444,0.899,1.684,1.154,0.484,0.854,0.818,�k��,2.0,��
2018/04/16,18:40,0.864,1.444,0.901,1.684,1.155,0.484,0.852,0.817,�k��,2.2,��
2018/04/16,18:50,0.864,1.444,0.902,1.685,1.152,0.483,0.852,0.817,�k��,2.9,��
2018/04/16,19:00,0.863,1.445,0.901,1.684,1.153,0.483,0.853,0.817,���k��,2.9,��
2018/04/16,19:10,0.861,1.444,0.900,1.682,1.151,0.484,0.854,0.817,���k��,1.9,��
2018/04/16,19:20,0.864,1.441,0.899,1.684,1.150,0.482,0.853,0.818,���k��,2.9,��
2018/04/16,19:30,0.862,1.441,0.901,1.682,1.153,0.483,0.855,0.817,�k��,2.9,��
2018/04/16,19:40,0.862,1.442,0.901,1.681,1.152,0.481,0.855,0.816,�k��,3.0,��
2018/04/16,19:50,0.859,1.442,0.898,1.682,1.153,0.483,0.853,0.815,�k��,2.3,��
2018/04/16,20:00,0.861,1.443,0.899,1.683,1.151,0.481,0.854,0.817,�k�k��,2.3,��
2018/04/16,20:10,0.862,1.442,0.898,1.684,1.150,0.484,0.852,0.816,�k,1.7,��
2018/04/16,20:20,0.861,1.445,0.900,1.685,1.151,0.481,0.853,0.816,�k�k��,0.6,��
2018/04/16,20:30,0.862,1.442,0.899,1.684,1.152,0.482,0.855,0.817,�k,1.1,��
2018/04/16,20:40,0.862,1.440,0.900,1.683,1.150,0.482,0.852,0.817,�k�k��,1.1,��
2018/04/16,20:50,0.862,1.442,0.899,1.682,1.153,0.481,0.852,0.816,�k,1.5,��
2018/04/16,21:00,0.861,1.440,0.900,1.682,1.153,0.481,0.852,0.816,�k,1.5,��
2018/04/16,21:10,0.861,1.440,0.899,1.683,1.150,0.481,0.853,0.814,�k,0.9,��
2018/04/16,21:20,0.862,1.441,0.898,1.684,1.151,0.480,0.852,0.816,�k��,0.9,��
2018/04/16,21:30,0.861,1.446,0.899,1.681,1.151,0.480,0.853,0.816,�k,0.6,��
2018/04/16,21:40,0.862,1.442,0.900,1.681,1.149,0.481,0.853,0.816,-,CALM,��
2018/04/16,21:50,0.861,1.440,0.900,1.681,1.150,0.480,0.852,0.816,-,CALM,��
2018/04/16,22:00,0.862,1.441,0.900,1.685,1.152,0.481,0.853,0.815,-,CALM,��
2018/04/16,22:10,0.861,1.441,0.896,1.683,1.150,0.480,0.851,0.816,-,CALM,��
2018/04/16,22:20,0.859,1.440,0.898,1.681,1.152,0.481,0.850,0.816,��,0.6,��
2018/04/16,22:30,0.860,1.443,0.900,1.684,1.152,0.480,0.852,0.815,-,CALM,��
2018/04/16,22:40,0.862,1.441,0.898,1.685,1.149,0.480,0.852,0.815,-,CALM,��
2018/04/16,22:50,0.860,1.442,0.897,1.683,1.151,0.480,0.851,0.817,-,CALM,��
2018/04/16,23:00,0.860,1.444,0.898,1.681,1.150,0.480,0.852,0.816,�k��,0.6,��
2018/04/16,23:10,0.863,1.442,0.899,1.682,1.150,0.480,0.851,0.814,-,CALM,��
2018/04/16,23:20,0.861,1.442,0.899,1.680,1.151,0.481,0.854,0.815,-,CALM,��
2018/04/16,23:30,0.859,1.438,0.899,1.682,1.151,0.480,0.852,0.817,�k��,0.6,��
2018/04/16,23:40,0.861,1.441,0.897,1.684,1.149,0.480,0.851,0.816,-,CALM,��
2018/04/16,23:50,0.860,1.442,0.898,1.682,1.151,0.480,0.850,0.816,��쐼,0.6,��
